NORTHERN NASSAU  -  Coastal Flood Statement Coastal Flood Statement        SOUTHERN NASSAU  -  Coastal Flood Statement Coastal Flood Statement      

Active alerts

Northern Nassau
  Details for Northern Nassau Coastal Flood Statement
Southern Nassau
  Details for Southern Nassau Coastal Flood Statement


WXM80 ListenWXM80 Stop

You find our weather info also at:

UK Metoffice

WeatherCloud

Weather Underground

Northeastern Weather Network

AWEKAS

Citizen Weather Observer Program (CWOP)

HAMweather, WeatherForYou, PWS Weather


Weather Underground History page Text

Daily Summary for January 1, 2017 Units:  Metric    English   Both
« Previous Day
Next Day »
Daily Weekly Monthly Yearly Custom
  High: Low: Average:
Temperature: 8.4 °C -0.6 °C 5.4 °C
Dew Point: 1.9 °C -4.1 °C -1.6 °C
Humidity: 84 % 43 % 62 %
Wind Speed: 18 km/h 0 km/h 5 km/h
Wind Gust: 46.7 km/h - -
Wind:- - West
Pressure: 1030.4 hPa 1010.7 hPa -
Precipitation: 0 mm    
Historical Graphs
 
 
Tabular Data for January 1, 2017
Time Temperature Dew Point Pressure Wind Wind Speed Wind Gust Humidity Rainfall Rate (Hourly)
00:00 6.4 °C -1 °C 1010.7 hPa SW 3.5 km/h 46.7 km/h 59 % 0 mm
00:10 6.4 °C -1 °C 1011.1 hPa SSW 6.6 km/h 46.7 km/h 59 % 0 mm
00:15 6.5 °C -0.9 °C 1011.1 hPa SW 7.1 km/h 46.7 km/h 59 % 0 mm
00:20 6.5 °C -1.2 °C 1011.1 hPa SW 4.5 km/h 46.7 km/h 58 % 0 mm
00:25 6.5 °C -1.2 °C 1011.1 hPa WSW 6.9 km/h 46.7 km/h 58 % 0 mm
00:30 6.5 °C -0.9 °C 1011.1 hPa SSW 4.8 km/h 46.7 km/h 59 % 0 mm
00:35 6.5 °C -1.2 °C 1011.1 hPa WSW 8.9 km/h 46.7 km/h 58 % 0 mm
00:40 6.5 °C -0.9 °C 1011.1 hPa SW 9.3 km/h 46.7 km/h 59 % 0 mm
00:45 6.5 °C -1.2 °C 1011.1 hPa SW 7.9 km/h 46.7 km/h 58 % 0 mm
00:51 6.5 °C -0.9 °C 1011.1 hPa SW 6 km/h 46.7 km/h 59 % 0 mm
01:01 6.4 °C -0.3 °C 1011.4 hPa WSW 7.4 km/h 46.7 km/h 62 % 0 mm
01:06 6.4 °C -0.4 °C 1011.7 hPa SW 8 km/h 46.7 km/h 62 % 0 mm
01:11 6.3 °C -0.2 °C 1011.7 hPa WSW 11.1 km/h 46.7 km/h 63 % 0 mm
01:16 6.3 °C -0.3 °C 1011.7 hPa WSW 7.1 km/h 46.7 km/h 63 % 0 mm
01:21 6.3 °C 0.4 °C 1011.7 hPa SW 18 km/h 46.7 km/h 66 % 0 mm
01:26 6.1 °C 1.1 °C 1011.7 hPa SSW 6.8 km/h 46.7 km/h 70 % 0 mm
01:31 5.9 °C 1.2 °C 1011.7 hPa SSE 10.8 km/h 46.7 km/h 72 % 0 mm
01:36 5.6 °C 1.5 °C 1011.4 hPa SSW 6.3 km/h 46.7 km/h 75 % 0 mm
01:41 5.4 °C 1.6 °C 1011.4 hPa SSW 13.7 km/h 46.7 km/h 76 % 0 mm
01:46 5.3 °C 1.8 °C 1011.4 hPa SSW 10.3 km/h 46.7 km/h 78 % 0 mm
01:51 5.2 °C 1.9 °C 1011.4 hPa SSW 9.3 km/h 46.7 km/h 79 % 0 mm
01:56 5.2 °C 1.8 °C 1011.7 hPa SW 9.3 km/h 46.7 km/h 79 % 0 mm
02:01 5.2 °C 1.8 °C 1011.7 hPa SSW 7.7 km/h 46.7 km/h 79 % 0 mm
02:07 5.1 °C 1.9 °C 1011.7 hPa SSW 8.5 km/h 46.7 km/h 80 % 0 mm
02:12 5.1 °C 1.8 °C 1011.7 hPa SSW 3.5 km/h 46.7 km/h 79 % 0 mm
02:17 5.1 °C 1.8 °C 1012.1 hPa WSW 2.4 km/h 46.7 km/h 79 % 0 mm
02:22 5.1 °C 1.7 °C 1011.7 hPa SW 0.2 km/h 46.7 km/h 79 % 0 mm
02:27 5.1 °C 1.7 °C 1011.7 hPa SW 1.8 km/h 46.7 km/h 79 % 0 mm
02:32 5.1 °C 1.7 °C 1011.7 hPa SW 4.8 km/h 46.7 km/h 79 % 0 mm
02:37 5.1 °C 1.3 °C 1011.7 hPa WSW 5.6 km/h 46.7 km/h 77 % 0 mm
02:42 5.1 °C 1.2 °C 1011.7 hPa WSW 6.3 km/h 46.7 km/h 76 % 0 mm
02:47 5.1 °C 1.1 °C 1011.7 hPa SSW 1.8 km/h 46.7 km/h 75 % 0 mm
02:52 5.2 °C 1.1 °C 1011.7 hPa SW 4.5 km/h 46.7 km/h 75 % 0 mm
02:58 5.2 °C 0.9 °C 1011.7 hPa SW 2.3 km/h 46.7 km/h 74 % 0 mm
03:03 5.2 °C 0.8 °C 1011.7 hPa South 3.7 km/h 46.7 km/h 73 % 0 mm
03:08 5.3 °C 0.6 °C 1011.7 hPa South 4.2 km/h 46.7 km/h 72 % 0 mm
03:13 5.3 °C 0.7 °C 1011.7 hPa SW 4.3 km/h 46.7 km/h 72 % 0 mm
03:18 5.4 °C 0.6 °C 1012.1 hPa SSW 7.2 km/h 46.7 km/h 71 % 0 mm
03:23 5.5 °C 0.4 °C 1011.7 hPa SW 3.2 km/h 46.7 km/h 70 % 0 mm
03:28 5.6 °C 0.2 °C 1011.7 hPa SW 6.8 km/h 46.7 km/h 68 % 0 mm
03:33 5.7 °C 0 °C 1011.7 hPa SSW 6 km/h 46.7 km/h 67 % 0 mm
03:38 5.8 °C 0.3 °C 1012.1 hPa SW 1.9 km/h 46.7 km/h 68 % 0 mm
03:43 5.8 °C 0.2 °C 1011.7 hPa SSW 10.3 km/h 46.7 km/h 67 % 0 mm
03:48 5.9 °C 0 °C 1011.7 hPa SW 8.7 km/h 46.7 km/h 66 % 0 mm
03:53 5.9 °C -0.2 °C 1012.1 hPa South 9.7 km/h 46.7 km/h 65 % 0 mm
03:58 5.9 °C -0.2 °C 1012.1 hPa SSW 6 km/h 46.7 km/h 65 % 0 mm
04:03 5.9 °C -0.2 °C 1012.4 hPa SW 9.3 km/h 46.7 km/h 65 % 0 mm
04:08 5.9 °C -0.4 °C 1012.4 hPa SSW 6.9 km/h 46.7 km/h 64 % 0 mm
04:14 5.8 °C -0.4 °C 1012.4 hPa WSW 4.5 km/h 46.7 km/h 64 % 0 mm
04:19 5.8 °C -0.4 °C 1012.4 hPa SW 6.8 km/h 46.7 km/h 64 % 0 mm
04:24 5.8 °C -0.4 °C 1012.4 hPa WSW 6.6 km/h 46.7 km/h 64 % 0 mm
04:29 5.8 °C -0.5 °C 1012.4 hPa WSW 7.6 km/h 46.7 km/h 64 % 0 mm
04:34 5.8 °C -0.7 °C 1012.4 hPa SW 4.8 km/h 46.7 km/h 63 % 0 mm
04:39 5.8 °C -0.7 °C 1012.4 hPa WSW 6.1 km/h 46.7 km/h 63 % 0 mm
04:44 5.8 °C -0.7 °C 1012.4 hPa SW 8.7 km/h 46.7 km/h 63 % 0 mm
04:49 5.8 °C -0.7 °C 1012.8 hPa West 6.6 km/h 46.7 km/h 63 % 0 mm
04:54 5.8 °C -0.7 °C 1013.1 hPa SW 13 km/h 46.7 km/h 63 % 0 mm
04:59 5.9 °C -0.8 °C 1012.8 hPa WSW 10.5 km/h 46.7 km/h 62 % 0 mm
05:04 6 °C -0.8 °C 1012.8 hPa SW 9.7 km/h 27.4 km/h 62 % 0 mm
05:09 6.1 °C -0.7 °C 1012.8 hPa SSW 10.1 km/h 46.7 km/h 62 % 0 mm
05:14 6.1 °C -0.8 °C 1012.8 hPa WSW 9.7 km/h 19.3 km/h 61 % 0 mm
05:19 6.2 °C -0.8 °C 1012.8 hPa SW 7.9 km/h 46.7 km/h 61 % 0 mm
05:24 6.3 °C -0.7 °C 1013.1 hPa SW 7.2 km/h 46.7 km/h 61 % 0 mm
05:29 6.3 °C -0.7 °C 1013.1 hPa SW 4.8 km/h 12.9 km/h 61 % 0 mm
05:34 6.3 °C -0.7 °C 1013.4 hPa SW 3.2 km/h 22.5 km/h 61 % 0 mm
05:39 6.3 °C -0.7 °C 1013.4 hPa SW 8 km/h 12.9 km/h 61 % 0 mm
05:44 6.3 °C -0.7 °C 1013.4 hPa SW 9.7 km/h 12.9 km/h 61 % 0 mm
05:49 6.2 °C -0.8 °C 1013.8 hPa SSW 4.7 km/h 46.7 km/h 61 % 0 mm
05:54 6.2 °C -0.8 °C 1013.8 hPa SW 9.7 km/h 16.1 km/h 61 % 0 mm
05:59 6.2 °C -0.8 °C 1014.1 hPa SW 8.5 km/h 46.7 km/h 61 % 0 mm
06:04 6.2 °C -0.8 °C 1014.1 hPa SW 4.8 km/h 16.1 km/h 61 % 0 mm
06:09 6.1 °C -0.8 °C 1014.1 hPa SW 4.8 km/h 14.5 km/h 61 % 0 mm
06:14 6.1 °C -0.9 °C 1014.4 hPa SW 8 km/h 12.9 km/h 61 % 0 mm
06:19 6.1 °C -0.7 °C 1014.4 hPa WSW 4.8 km/h 19.3 km/h 62 % 0 mm
06:24 6.1 °C -0.7 °C 1014.8 hPa SW 9.7 km/h 16.1 km/h 62 % 0 mm
06:29 6 °C -0.7 °C 1014.8 hPa SW 8 km/h 16.1 km/h 62 % 0 mm
06:34 6 °C -0.7 °C 1014.8 hPa WSW 3.2 km/h 14.5 km/h 62 % 0 mm
06:39 6 °C -0.7 °C 1014.8 hPa SW 3.2 km/h 12.9 km/h 62 % 0 mm
06:44 5.9 °C -0.8 °C 1014.8 hPa WSW 8 km/h 12.9 km/h 62 % 0 mm
06:49 5.9 °C -0.6 °C 1015.1 hPa WSW 3.2 km/h 11.3 km/h 63 % 0 mm
06:54 5.9 °C -0.6 °C 1015.1 hPa WSW 4.8 km/h 14.5 km/h 63 % 0 mm
06:59 5.9 °C -0.4 °C 1015.1 hPa West 5 km/h 46.7 km/h 64 % 0 mm
07:04 5.9 °C -0.4 °C 1015.1 hPa West 2.9 km/h 46.7 km/h 64 % 0 mm
07:09 5.9 °C -0.4 °C 1015.5 hPa West 7.1 km/h 46.7 km/h 64 % 0 mm
07:14 5.9 °C -0.4 °C 1015.5 hPa SW 4.7 km/h 46.7 km/h 64 % 0 mm
07:19 5.9 °C -0.2 °C 1015.5 hPa WSW 4.7 km/h 46.7 km/h 65 % 0 mm
07:24 5.9 °C -0.2 °C 1015.5 hPa West 6.6 km/h 46.7 km/h 65 % 0 mm
07:29 5.9 °C -0.2 °C 1015.5 hPa West 8 km/h 46.7 km/h 65 % 0 mm
07:35 6.1 °C -0.1 °C 1015.5 hPa WSW 4.8 km/h 46.7 km/h 65 % 0 mm
07:40 6.1 °C -0.1 °C 1015.5 hPa West 10.8 km/h 46.7 km/h 65 % 0 mm
07:45 6.2 °C 0.1 °C 1015.8 hPa SSW 4.5 km/h 46.7 km/h 65 % 0 mm
07:50 6.2 °C 0.1 °C 1015.8 hPa West 10.6 km/h 46.7 km/h 65 % 0 mm
07:55 6.3 °C 0.2 °C 1016.1 hPa WSW 8.9 km/h 46.7 km/h 65 % 0 mm
08:00 6.3 °C 0.2 °C 1016.1 hPa WSW 1.9 km/h 46.7 km/h 65 % 0 mm
08:05 6.3 °C 0.2 °C 1016.1 hPa West 2.9 km/h 46.7 km/h 65 % 0 mm
08:10 6.3 °C 0.2 °C 1016.5 hPa WSW 2.9 km/h 46.7 km/h 65 % 0 mm
08:15 6.3 °C 0.2 °C 1016.5 hPa WSW 6.9 km/h 46.7 km/h 65 % 0 mm
08:20 6.4 °C 0.3 °C 1016.5 hPa WSW 11.3 km/h 46.7 km/h 65 % 0 mm
08:25 6.5 °C 0.4 °C 1016.8 hPa WNW 9.7 km/h 46.7 km/h 65 % 0 mm
08:30 6.6 °C 0.4 °C 1016.8 hPa WSW 10.8 km/h 46.7 km/h 65 % 0 mm
08:40 6.7 °C 0.6 °C 1017.2 hPa WSW 9.2 km/h 46.7 km/h 65 % 0 mm
08:45 6.8 °C 0.7 °C 1017.5 hPa WNW 4.2 km/h 46.7 km/h 65 % 0 mm
08:51 6.9 °C 0.8 °C 1017.5 hPa WSW 5.8 km/h 46.7 km/h 65 % 0 mm
08:56 7.1 °C 0.9 °C 1017.8 hPa NW 4.5 km/h 46.7 km/h 65 % 0 mm
09:01 7.2 °C 0.8 °C 1017.8 hPa WNW 8.9 km/h 46.7 km/h 64 % 0 mm
09:06 7.3 °C 0.7 °C 1018.2 hPa WNW 11.3 km/h 46.7 km/h 63 % 0 mm
09:11 7.4 °C 0.8 °C 1018.2 hPa WNW 3.1 km/h 46.7 km/h 63 % 0 mm
09:16 7.4 °C 0.8 °C 1018.5 hPa WNW 6 km/h 46.7 km/h 63 % 0 mm
09:21 7.6 °C 0.9 °C 1018.5 hPa West 10.3 km/h 46.7 km/h 63 % 0 mm
09:26 7.7 °C 1.1 °C 1018.8 hPa WNW 5.1 km/h 46.7 km/h 63 % 0 mm
09:31 7.7 °C 1.1 °C 1018.8 hPa WSW 7.2 km/h 46.7 km/h 63 % 0 mm
09:36 7.8 °C 0.9 °C 1018.8 hPa West 11.9 km/h 46.7 km/h 62 % 0 mm
09:40 7.8 °C 1 °C 1018.8 hPa West 5.3 km/h 46.7 km/h 62 % 0 mm
09:46 7.9 °C 0.9 °C 1019.2 hPa WNW 6.6 km/h 46.7 km/h 61 % 0 mm
09:51 8 °C 0.9 °C 1019.2 hPa West 6.1 km/h 46.7 km/h 61 % 0 mm
09:56 8.1 °C 0.8 °C 1019.2 hPa SSW 3.7 km/h 46.7 km/h 60 % 0 mm
10:01 8.2 °C 0.8 °C 1019.2 hPa WNW 5.1 km/h 46.7 km/h 60 % 0 mm
10:06 8.2 °C 0.9 °C 1019.5 hPa NNW 6.3 km/h 46.7 km/h 60 % 0 mm
10:11 8.2 °C 1.1 °C 1019.5 hPa NNW 6.9 km/h 46.7 km/h 61 % 0 mm
10:16 8.2 °C 1.4 °C 1019.5 hPa West 5.6 km/h 46.7 km/h 62 % 0 mm
10:21 8.2 °C 1.1 °C 1019.5 hPa West 9.2 km/h 46.7 km/h 61 % 0 mm
10:26 8.2 °C 0.8 °C 1019.9 hPa NNW 7.7 km/h 46.7 km/h 60 % 0 mm
10:31 8.2 °C 0.6 °C 1019.5 hPa WNW 10.5 km/h 46.7 km/h 59 % 0 mm
10:36 8.2 °C 0.8 °C 1019.9 hPa West 4.5 km/h 46.7 km/h 60 % 0 mm
10:41 8.1 °C 0.3 °C 1019.9 hPa NNW 3.5 km/h 46.7 km/h 58 % 0 mm
10:46 8.1 °C 0.1 °C 1019.9 hPa West 3.5 km/h 46.7 km/h 57 % 0 mm
10:51 8.1 °C -0.2 °C 1019.9 hPa NW 4.3 km/h 46.7 km/h 56 % 0 mm
10:57 8.1 °C 0.1 °C 1019.9 hPa WNW 14 km/h 46.7 km/h 57 % 0 mm
11:02 8 °C 0 °C 1019.9 hPa WNW 7.7 km/h 46.7 km/h 57 % 0 mm
11:07 7.9 °C -0.1 °C 1019.9 hPa WNW 7.1 km/h 46.7 km/h 57 % 0 mm
11:12 7.8 °C -0.7 °C 1020.2 hPa NW 9.3 km/h 46.7 km/h 55 % 0 mm
11:17 7.8 °C -0.7 °C 1019.9 hPa WNW 4.2 km/h 46.7 km/h 55 % 0 mm
11:22 7.7 °C -0.5 °C 1020.2 hPa NW 7.7 km/h 46.7 km/h 56 % 0 mm
11:27 7.7 °C -1 °C 1020.2 hPa West 12.7 km/h 46.7 km/h 54 % 0 mm
11:32 7.7 °C -1.3 °C 1020.2 hPa NW 8.5 km/h 46.7 km/h 53 % 0 mm
11:37 7.7 °C -1.3 °C 1020.2 hPa NW 5.3 km/h 46.7 km/h 53 % 0 mm
11:42 7.7 °C -1.3 °C 1020.2 hPa West 8.4 km/h 46.7 km/h 53 % 0 mm
11:47 7.7 °C -1.8 °C 1020.2 hPa WNW 7.4 km/h 46.7 km/h 51 % 0 mm
11:52 7.7 °C -1.8 °C 1020.5 hPa WNW 11.6 km/h 46.7 km/h 51 % 0 mm
11:57 7.7 °C -1.6 °C 1020.5 hPa WNW 5.3 km/h 46.7 km/h 52 % 0 mm
12:02 7.7 °C -1.8 °C 1020.5 hPa West 13.2 km/h 46.7 km/h 51 % 0 mm
12:07 7.7 °C -1.6 °C 1020.5 hPa WNW 6 km/h 46.7 km/h 52 % 0 mm
12:12 7.8 °C -1.5 °C 1020.5 hPa NW 5.1 km/h 46.7 km/h 52 % 0 mm
12:17 7.8 °C -1.4 °C 1020.5 hPa WSW 6.8 km/h 46.7 km/h 52 % 0 mm
12:22 7.9 °C -1.1 °C 1020.5 hPa West 4 km/h 46.7 km/h 53 % 0 mm
12:27 8.1 °C -2 °C 1020.5 hPa WNW 8.5 km/h 46.7 km/h 49 % 0 mm
12:32 8.2 °C -1.3 °C 1020.5 hPa WNW 7.2 km/h 46.7 km/h 51 % 0 mm
12:38 8.3 °C -1.8 °C 1020.5 hPa West 10.5 km/h 46.7 km/h 49 % 0 mm
12:43 8.4 °C -2.2 °C 1020.5 hPa NW 10.1 km/h 46.7 km/h 47 % 0 mm
12:48 8.4 °C -2.6 °C 1020.5 hPa NW 6.6 km/h 46.7 km/h 46 % 0 mm
12:53 8.4 °C -2.6 °C 1020.5 hPa NW 9.2 km/h 46.7 km/h 46 % 0 mm
12:58 8.3 °C -2.6 °C 1020.5 hPa WNW 8.9 km/h 46.7 km/h 46 % 0 mm
13:03 8.3 °C -2.9 °C 1020.9 hPa SW 10.1 km/h 46.7 km/h 45 % 0 mm
13:08 8.3 °C -3.3 °C 1020.9 hPa WNW 9.5 km/h 46.7 km/h 44 % 0 mm
13:13 8.3 °C -3 °C 1020.9 hPa NNW 9.5 km/h 46.7 km/h 45 % 0 mm
13:18 8.3 °C -2.7 °C 1020.9 hPa WNW 8.2 km/h 46.7 km/h 46 % 0 mm
13:23 8.3 °C -3.3 °C 1020.9 hPa West 11.9 km/h 46.7 km/h 44 % 0 mm
13:28 8.3 °C -3.2 °C 1020.9 hPa WSW 6.3 km/h 46.7 km/h 44 % 0 mm
13:33 8.3 °C -3.2 °C 1021.2 hPa WSW 6.9 km/h 46.7 km/h 44 % 0 mm
13:38 8.3 °C -3.2 °C 1020.9 hPa WNW 8 km/h 46.7 km/h 44 % 0 mm
13:43 8.4 °C -3.2 °C 1020.9 hPa WNW 7.6 km/h 46.7 km/h 44 % 0 mm
13:49 8.4 °C -3.2 °C 1021.2 hPa West 5.8 km/h 46.7 km/h 44 % 0 mm
13:54 8.4 °C -3.2 °C 1021.2 hPa NW 9.3 km/h 46.7 km/h 44 % 0 mm
13:59 8.4 °C -3.1 °C 1021.2 hPa WNW 8.2 km/h 46.7 km/h 44 % 0 mm
14:04 8.4 °C -3.4 °C 1021.6 hPa WNW 9.8 km/h 46.7 km/h 43 % 0 mm
14:09 8.4 °C -3.1 °C 1021.6 hPa WSW 8.4 km/h 46.7 km/h 44 % 0 mm
14:14 8.4 °C -3.4 °C 1021.6 hPa WNW 8.9 km/h 46.7 km/h 43 % 0 mm
14:19 8.4 °C -3.5 °C 1021.6 hPa West 4.3 km/h 46.7 km/h 43 % 0 mm
14:24 8.3 °C -3.2 °C 1021.6 hPa NW 8.9 km/h 46.7 km/h 44 % 0 mm
14:29 8.3 °C -3.3 °C 1021.9 hPa WSW 7.9 km/h 46.7 km/h 44 % 0 mm
14:34 8.2 °C -3.3 °C 1021.6 hPa WNW 1.8 km/h 46.7 km/h 44 % 0 mm
14:39 8.2 °C -3.4 °C 1021.9 hPa NW 7.6 km/h 46.7 km/h 44 % 0 mm
14:44 8.1 °C -3.5 °C 1021.9 hPa WNW 3.2 km/h 11.3 km/h 44 % 0 mm
14:49 8 °C -3.6 °C 1021.9 hPa WSW 9.2 km/h 46.7 km/h 44 % 0 mm
14:54 7.9 °C -3.3 °C 1021.9 hPa NW 3.9 km/h 46.7 km/h 45 % 0 mm
14:59 7.9 °C -3.3 °C 1022.2 hPa WSW 7.2 km/h 46.7 km/h 45 % 0 mm
15:04 7.8 °C -3.4 °C 1022.2 hPa WNW 5.3 km/h 46.7 km/h 45 % 0 mm
15:09 7.8 °C -3.4 °C 1022.2 hPa WNW 2.1 km/h 46.7 km/h 45 % 0 mm
15:14 7.7 °C -3.5 °C 1022.6 hPa WSW 6.3 km/h 46.7 km/h 45 % 0 mm
15:19 7.7 °C -3.2 °C 1022.6 hPa WNW 6.4 km/h 46.7 km/h 46 % 0 mm
15:24 7.7 °C -2.9 °C 1022.9 hPa WNW 5.1 km/h 46.7 km/h 47 % 0 mm
15:30 7.6 °C -3 °C 1022.9 hPa WNW 2.4 km/h 46.7 km/h 47 % 0 mm
15:35 7.5 °C -2.8 °C 1022.9 hPa WNW 4.5 km/h 46.7 km/h 48 % 0 mm
15:40 7.4 °C -3.2 °C 1022.9 hPa West 5.3 km/h 46.7 km/h 47 % 0 mm
15:45 7.4 °C -3.2 °C 1023.2 hPa WNW 2.7 km/h 46.7 km/h 47 % 0 mm
15:50 7.3 °C -3.6 °C 1023.2 hPa West 4.2 km/h 46.7 km/h 46 % 0 mm
15:55 7.3 °C -3.3 °C 1023.6 hPa WNW 2.4 km/h 46.7 km/h 47 % 0 mm
16:00 7.2 °C -3.1 °C 1023.6 hPa WSW 2.4 km/h 46.7 km/h 48 % 0 mm
16:05 7.1 °C -3.2 °C 1023.6 hPa West 4.2 km/h 46.7 km/h 48 % 0 mm
16:10 7 °C -3.3 °C 1023.9 hPa WNW 1.8 km/h 46.7 km/h 48 % 0 mm
16:15 6.9 °C -3.6 °C 1023.9 hPa WNW 1.3 km/h 46.7 km/h 47 % 0 mm
16:20 6.9 °C -3.7 °C 1024.3 hPa WNW 0.6 km/h 46.7 km/h 47 % 0 mm
16:25 6.8 °C -3.7 °C 1024.3 hPa WNW 3.9 km/h 46.7 km/h 47 % 0 mm
16:31 6.7 °C -3.6 °C 1024.3 hPa WNW 4.2 km/h 46.7 km/h 48 % 0 mm
16:36 6.6 °C -3.6 °C 1024.3 hPa WNW 0.3 km/h 46.7 km/h 48 % 0 mm
16:41 6.6 °C -3.7 °C 1024.6 hPa WNW 0.8 km/h 46.7 km/h 48 % 0 mm
16:46 6.4 °C -3.5 °C 1024.9 hPa WNW 2.4 km/h 46.7 km/h 49 % 0 mm
16:51 6.3 °C -3.4 °C 1024.9 hPa WNW 4.3 km/h 46.7 km/h 50 % 0 mm
16:56 6.2 °C -3.4 °C 1024.9 hPa WNW 5.8 km/h 46.7 km/h 50 % 0 mm
17:01 6.1 °C -3.6 °C 1025.3 hPa NW 4.3 km/h 46.7 km/h 50 % 0 mm
17:06 6 °C -3.7 °C 1025.3 hPa NNW 3.2 km/h 46.7 km/h 50 % 0 mm
17:11 6 °C -3.7 °C 1025.3 hPa NW 3.2 km/h 46.7 km/h 50 % 0 mm
17:16 5.9 °C -3.4 °C 1025.6 hPa NW 5.1 km/h 46.7 km/h 51 % 0 mm
17:21 5.9 °C -3.2 °C 1025.6 hPa WNW 3.2 km/h 46.7 km/h 52 % 0 mm
17:26 5.8 °C -3 °C 1025.6 hPa WNW 2.9 km/h 46.7 km/h 53 % 0 mm
17:31 5.8 °C -2.8 °C 1025.6 hPa WNW 0.6 km/h 46.7 km/h 54 % 0 mm
17:36 5.8 °C -2.8 °C 1026 hPa WNW 3.7 km/h 46.7 km/h 54 % 0 mm
17:41 5.7 °C -2.7 °C 1026 hPa NW 1.4 km/h 46.7 km/h 55 % 0 mm
17:46 5.6 °C -2.5 °C 1026 hPa NW 1.1 km/h 46.7 km/h 56 % 0 mm
17:52 5.6 °C -2.3 °C 1026 hPa WNW 1 km/h 46.7 km/h 57 % 0 mm
17:57 5.5 °C -2.1 °C 1026 hPa WNW 1 km/h 46.7 km/h 58 % 0 mm
18:02 5.4 °C -1.9 °C 1026 hPa WNW 2.9 km/h 46.7 km/h 59 % 0 mm
18:07 5.4 °C -1.8 °C 1026 hPa WNW 0.6 km/h 46.7 km/h 60 % 0 mm
18:12 5.3 °C -1.8 °C 1026.3 hPa WNW 0.3 km/h 46.7 km/h 60 % 0 mm
18:17 5.2 °C -1.9 °C 1026 hPa WNW 0.8 km/h 46.7 km/h 60 % 0 mm
18:22 5.1 °C -2 °C 1026.3 hPa WNW 0.2 km/h 46.7 km/h 60 % 0 mm
18:27 5 °C -1.4 °C 1026.3 hPa Calm   46.7 km/h 63 % 0 mm
18:32 4.9 °C -1.6 °C 1026.6 hPa Calm   46.7 km/h 63 % 0 mm
18:37 4.6 °C -1.8 °C 1026.6 hPa WNW 2.7 km/h 46.7 km/h 63 % 0 mm
18:42 4.3 °C -2.1 °C 1026.6 hPa WNW 1.4 km/h 46.7 km/h 63 % 0 mm
18:47 4.2 °C -2.3 °C 1026.3 hPa West 0.8 km/h 46.7 km/h 63 % 0 mm
18:52 4.1 °C -1.9 °C 1026.3 hPa Calm   46.7 km/h 65 % 0 mm
18:57 3.9 °C -2.3 °C 1026.6 hPa Calm   46.7 km/h 64 % 0 mm
19:02 3.6 °C -2.4 °C 1026.6 hPa West 2.9 km/h 46.7 km/h 65 % 0 mm
19:07 3.3 °C -2.8 °C 1027 hPa West 1.4 km/h 46.7 km/h 64 % 0 mm
19:13 3.1 °C -2.8 °C 1027 hPa Calm   46.7 km/h 65 % 0 mm
19:18 2.9 °C -2.8 °C 1027 hPa West 0.6 km/h 46.7 km/h 66 % 0 mm
19:23 2.7 °C -3.1 °C 1027.3 hPa West 2.4 km/h 46.7 km/h 66 % 0 mm
19:28 2.4 °C -3.1 °C 1027.3 hPa West 3.1 km/h 46.7 km/h 67 % 0 mm
19:33 2.3 °C -3 °C 1027.3 hPa West 1.4 km/h 46.7 km/h 68 % 0 mm
19:38 2.2 °C -3.1 °C 1027.7 hPa Calm   46.7 km/h 68 % 0 mm
19:43 2.2 °C -2.9 °C 1027.7 hPa Calm   46.7 km/h 69 % 0 mm
19:48 2.1 °C -3.1 °C 1027.7 hPa Calm   46.7 km/h 69 % 0 mm
19:53 1.9 °C -3 °C 1027.7 hPa West 1 km/h 46.7 km/h 70 % 0 mm
19:58 1.8 °C -3.1 °C 1027.7 hPa West 2.9 km/h 46.7 km/h 70 % 0 mm
20:03 1.6 °C -3.3 °C 1028 hPa Calm   46.7 km/h 70 % 0 mm
20:08 1.5 °C -3.2 °C 1028 hPa Calm   46.7 km/h 71 % 0 mm
20:13 1.4 °C -3.2 °C 1028 hPa Calm   46.7 km/h 71 % 0 mm
20:18 1.3 °C -3.3 °C 1028.3 hPa Calm   46.7 km/h 71 % 0 mm
20:23 1.3 °C -3.4 °C 1028.3 hPa West 1 km/h 46.7 km/h 71 % 0 mm
20:28 1.1 °C -3.4 °C 1028.7 hPa West 3.2 km/h 46.7 km/h 72 % 0 mm
20:34 1 °C -3.5 °C 1028.7 hPa Calm   46.7 km/h 72 % 0 mm
20:39 0.9 °C -3.6 °C 1029 hPa Calm   46.7 km/h 72 % 0 mm
20:44 0.9 °C -3.6 °C 1029 hPa Calm   46.7 km/h 72 % 0 mm
20:49 0.8 °C -3.5 °C 1029 hPa Calm   46.7 km/h 73 % 0 mm
20:54 0.7 °C -3.6 °C 1029 hPa Calm   46.7 km/h 73 % 0 mm
20:59 0.7 °C -3.6 °C 1029 hPa Calm   46.7 km/h 73 % 0 mm
21:04 0.6 °C -3.7 °C 1029 hPa Calm   46.7 km/h 73 % 0 mm
21:09 0.5 °C -3.6 °C 1029 hPa Calm   46.7 km/h 74 % 0 mm
21:14 0.4 °C -3.7 °C 1029 hPa West 0.3 km/h 46.7 km/h 74 % 0 mm
21:19 0.3 °C -3.6 °C 1029 hPa Calm   46.7 km/h 75 % 0 mm
21:24 0.2 °C -3.6 °C 1028.7 hPa Calm   46.7 km/h 76 % 0 mm
21:29 0.1 °C -3.7 °C 1029 hPa West 1.8 km/h 46.7 km/h 76 % 0 mm
21:34 0 °C -3.7 °C 1029 hPa Calm   46.7 km/h 76 % 0 mm
21:39 -0.1 °C -3.8 °C 1029 hPa Calm     76 % 0 mm
21:44 -0.2 °C -3.9 °C 1029.3 hPa Calm   46.7 km/h 76 % 0 mm
21:49 -0.2 °C -3.9 °C 1029.3 hPa Calm     76 % 0 mm
21:54 -0.2 °C -3.8 °C 1029.3 hPa Calm     77 % 0 mm
21:59 -0.3 °C -3.8 °C 1029.7 hPa Calm   46.7 km/h 77 % 0 mm
22:04 -0.3 °C -3.9 °C 1029.7 hPa Calm     77 % 0 mm
22:09 -0.4 °C -4 °C 1029.7 hPa Calm   46.7 km/h 77 % 0 mm
22:14 -0.4 °C -4 °C 1030 hPa West 0.2 km/h 46.7 km/h 77 % 0 mm
22:19 -0.5 °C -4.1 °C 1030 hPa Calm   1.6 km/h 77 % 0 mm
22:24 -0.5 °C -4.1 °C 1030 hPa Calm     77 % 0 mm
22:29 -0.5 °C -4.1 °C 1030 hPa Calm     77 % 0 mm
22:34 -0.5 °C -4.1 °C 1030 hPa West 1.6 km/h 3.2 km/h 77 % 0 mm
22:39 -0.6 °C -3.9 °C 1030 hPa West 1.6 km/h 3.2 km/h 78 % 0 mm
22:44 -0.6 °C -3.9 °C 1030 hPa Calm   1.6 km/h 78 % 0 mm
22:49 -0.6 °C -3.8 °C 1030.4 hPa Calm   1.6 km/h 79 % 0 mm
22:54 -0.6 °C -3.8 °C 1030 hPa Calm     79 % 0 mm
22:59 -0.6 °C -3.6 °C 1030 hPa Calm   46.7 km/h 80 % 0 mm
23:04 -0.6 °C -3.6 °C 1030 hPa Calm   46.7 km/h 80 % 0 mm
23:09 -0.6 °C -3.6 °C 1030 hPa Calm   46.7 km/h 80 % 0 mm
23:14 -0.6 °C -3.3 °C 1030 hPa Calm   46.7 km/h 82 % 0 mm
23:19 -0.6 °C -3.3 °C 1030 hPa Calm   46.7 km/h 82 % 0 mm
23:24 -0.6 °C -3.1 °C 1030 hPa Calm   46.7 km/h 83 % 0 mm
23:29 -0.5 °C -3.1 °C 1030 hPa Calm   46.7 km/h 83 % 0 mm
23:35 -0.5 °C -3.1 °C 1030 hPa Calm   46.7 km/h 83 % 0 mm
23:39 -0.4 °C -3 °C 1030 hPa Calm   46.7 km/h 83 % 0 mm
23:45 -0.4 °C -2.8 °C 1030 hPa West 1.8 km/h 46.7 km/h 84 % 0 mm
23:50 -0.4 °C -2.8 °C 1030 hPa West 0.3 km/h 46.7 km/h 84 % 0 mm
23:55 -0.3 °C -2.7 °C 1030 hPa West 0.3 km/h 46.7 km/h 84 % 0 mm
Crab Meadow Weather
Compliments of Weather Underground - 3 mb

Script developed by  Jim McMurry - jmcmurry@mwt.net Adapted for the template by  Wim van der Kuil - Leuven-Template.eu

Weather Terms: Flood Warning - General or areal flooding of streets, low-lying areas, urban storm drains, creeks and small streams is occurring, imminent, or highly likely. Flood warnings are issued for flooding that occurs more than 6 hours after the excessive rainfall. These warnings are issued on a county by county basis by the local Weather Forecast Office in Upton and are generally in effect for 6 to 12 hours.